STARLINK-11676 [DTC] (63757 NORAD) Tracking and Keplerian Element Data

This shows tracking and keplerian element data for the satellite.

Feedback or suggestion? Click here.




ElementValue
Catalog63757
NameSTARLINK-11676 [DTC]
Epoch Orbit3753
Epoch Day354.23190123
Epoch Year2025
RAAN50.7604
Inclination42.9997
Eccentricity0.0002869
Argument of Perigee169.5628
Mean Anonmoly190.5299
Mean Motion15.70981201
Decay Rate0.00211069
L11 63757U 25089G 25354.23190123 .00211069 00000+0 15974-2 0 9998
L22 63757 42.9997 50.7604 0002869 169.5628 190.5299 15.70981201 37531



Live tracking and technical data element details for STARLINK-11676 [DTC] (NORAD 63757). STARLINK-11676 [DTC] can be tracked NOW for your location showing map with azimuth and elevation plus other details from your city location.







IsCatalogInMostPopularTable: catalog: 63757, numindb: 5
Update: records affected: 1



GetName: 63757 STARLINK-11676 [DTC]

Hit Count: updated at: Tue, 21 Apr 2026 20:02:37 GMT